Temperature
26 26 24 25 24 24 25 25 26 25 24 24 25 26 28 29 29 29 29 29 29 29 29 28 28 27 26 25 25 24 24 23 22 21 20 20 19 19 19 18 18 18 18 18
25 24 25 25 25 25 25 24 24 24 24 24 24 25 27 28 28 29 29 29 29 30 29 28 27 26 25 24 24 23 23 22 21 21 20 20 19 19 18 18 18 18 18 18
24 25 25 24 24 24 23 22 22 21 22 23 23 23 25 27 28 28 29 29 29 29 28 27 26 25 24 23 23 22 22 21 21 20 20 19 18 18 18 18 18 18 18 17
26 26 25 24 24 24 23 23 21 21 20 20 20 20 23 25 25 27 28 28 28 28 28 26 25 24 23 22 22 21 21 21 20 20 19 18 18 18 18 18 18 18 18 17
26 26 25 25 25 25 24 23 22 21 20 19 20 19 21 24 24 26 27 28 28 28 27 25 24 23 23 22 21 21 21 20 20 19 18 18 18 18 18 17 17 17 17 17
27 28 27 26 26 25 24 23 22 21 20 20 21 21 21 23 24 25 27 27 27 27 26 25 24 23 22 21 21 21 20 20 19 19 18 18 18 17 17 17 17 17 17 17
26 27 28 27 25 25 24 23 21 20 19 20 22 22 22 24 25 26 26 27 27 26 25 24 23 22 22 21 21 20 20 20 19 19 19 19 18 18 17 17 17 17 16 16
24 25 27 26 25 25 24 24 21 20 20 20 21 21 24 25 26 26 26 26 25 25 24 24 23 22 21 21 21 20 20 20 19 19 19 19 19 18 17 17 17 16 16 16
22 23 25 26 26 25 24 24 25 23 22 21 22 22 24 24 25 25 26 25 24 24 24 23 22 22 21 21 21 20 20 20 19 19 19 19 19 18 17 17 16 16 16 16
22 21 23 24 25 25 24 24 23 21 19 20 22 22 19 20 20 21 23 24 24 24 23 23 23 22 22 21 21 20 20 20 19 19 19 18 18 18 17 17 16 16 15 15
22 20 21 22 22 22 21 21 21 21 20 20 19 19 19 16 16 17 19 21 22 22 22 23 23 23 22 22 21 21 20 20 19 19 19 18 18 17 17 16 16 16 15 15
21 20 19 20 21 19 19 17 17 17 18 19 18 18 18 17 17 18 19 20 22 22 23 23 23 23 23 22 22 21 20 20 20 19 19 18 18 17 17 16 16 16 15 15
19 18 17 18 19 17 15 15 17 18 18 17 17 17 18 17 18 18 19 20 21 22 23 23 23 23 23 23 22 21 20 20 19 19 19 18 18 17 17 16 16 16 16 15
19 18 17 16 16 16 15 16 17 18 17 17 17 17 16 17 18 19 20 20 21 22 22 23 23 23 23 23 22 22 21 20 19 19 19 18 18 17 17 16 16 16 16 16
19 18 18 18 18 18 17 16 17 18 18 17 16 16 16 17 18 19 19 20 21 21 22 22 23 23 23 22 22 22 21 20 20 19 19 18 18 17 17 16 16 16 16 16
19 18 18 18 18 18 16 14 15 16 16 16 16 15 17 18 18 18 18 19 19 20 21 21 22 22 22 21 21 21 21 20 20 19 18 18 18 17 17 16 16 16 16 15
18 17 16 16 17 18 13 10 11 13 14 14 14 15 17 17 18 18 17 17 18 18 18 19 19 20 20 20 20 20 19 19 19 19 18 18 17 17 16 16 16 16 15 15
18 17 16 15 16 13 10 10 10 11 12 13 13 15 16 16 17 17 17 17 17 17 17 17 18 18 19 19 19 19 18 18 18 18 17 17 16 16 15 15 15 15 15 15
19 17 15 14 14 12 10 10 10 10 11 11 12 13 14 15 17 17 16 16 16 16 16 17 17 17 17 18 18 18 17 17 17 16 16 15 15 15 15 14 14 14 15 15
18 17 16 14 13 11 10 11 10 11 11 11 10 12 13 14 14 15 16 16 16 16 16 16 16 16 16 16 16 16 15 15 14 14 14 14 14 14 13 13 13 14 14 14
16 16 15 14 13 11 11 11 11 11 10 9 10 11 12 13 14 15 16 16 16 16 16 16 15 15 16 15 15 15 14 13 13 13 13 13 13 13 13 13 13 13 13 13
15 14 14 13 12 11 12 12 11 10 10 10 10 11 12 12 13 14 15 16 17 16 16 15 15 15 15 15 14 14 13 13 13 12 12 12 12 12 12 12 12 12 12 13
15 14 14 13 13 13 13 12 11 11 10 10 10 11 11 12 13 14 15 16 17 16 16 15 15 15 15 14 14 13 13 13 13 12 12 12 12 12 12 11 11 11 11 12
15 15 14 14 14 13 13 12 12 11 11 11 11 11 12 12 13 14 15 16 17 17 16 16 15 15 15 14 14 13 13 13 13 13 12 12 12 11 11 11 11 11 11 11
14 14 13 13 14 13 13 12 11 11 11 11 11 11 12 12 13 14 15 16 16 17 16 16 16 16 15 15 14 14 13 13 13 13 13 12 12 11 11 11 11 11 11 11
15 14 13 13 13 12 12 12 12 12 11 11 11 12 12 13 14 14 15 16 16 17 17 16 16 16 16 15 14 14 13 13 13 13 12 12 12 11 11 11 11 11 11 11
Wind_Speed
4 7 7 5 4 7 10 13 13 7 7 8 10 13 12 10 7 8 9 10 11 10 12 11 10 9 6 4 3 4 6 7 7 6 6 5 4 4 4 4 5 6 6 7
5 6 4 5 5 8 9 11 12 9 11 9 12 16 16 13 11 10 11 12 11 9 9 11 11 9 7 6 4 3 5 5 6 5 5 5 5 4 5 5 5 6 6 6
7 5 2 5 7 8 8 7 8 10 12 10 12 14 16 16 15 13 12 10 8 5 6 13 12 10 8 8 6 4 4 7 6 6 4 4 3 2 4 5 5 6 6 6
7 4 4 7 10 9 9 5 5 5 5 5 5 9 13 16 14 12 10 8 6 4 4 12 13 11 10 9 7 6 6 7 6 5 4 5 5 5 6 6 6 6 6 6
9 6 7 10 10 8 7 3 5 6 5 7 8 8 10 12 10 8 6 4 3 5 7 13 13 11 11 10 7 7 8 7 6 5 5 4 5 5 5 5 7 7 7 7
14 12 10 10 8 6 4 5 7 7 6 9 11 10 7 4 4 4 5 2 3 6 8 13 13 11 11 9 7 7 7 7 5 5 6 7 6 4 3 3 4 4 4 4
15 13 10 8 8 7 8 8 5 5 5 6 4 5 6 5 2 2 3 1 4 7 10 13 13 11 10 9 8 8 8 7 5 5 7 7 6 4 4 4 4 3 3 4
14 12 6 2 7 10 10 12 9 6 5 3 2 5 4 4 4 2 2 6 6 8 10 12 12 11 10 9 8 8 8 7 6 4 4 2 7 3 0 2 2 2 3 3
12 13 16 14 12 13 14 14 14 12 14 12 7 7 3 2 3 2 5 8 7 9 10 11 12 11 10 10 9 8 9 7 7 5 3 2 3 4 2 2 2 2 3 3
13 19 16 18 17 15 14 14 8 4 5 7 7 2 5 12 16 15 10 4 5 6 9 10 11 12 11 10 9 9 9 8 7 6 5 4 1 3 2 1 3 2 3 4
16 12 15 16 15 14 10 8 9 6 7 5 3 2 5 10 14 17 17 13 9 7 5 1 6 10 11 11 11 9 9 8 8 7 6 6 5 4 4 3 3 3 4 5
11 10 14 17 10 12 8 8 8 5 6 6 2 2 8 9 9 13 16 15 10 6 3 3 3 5 8 10 11 11 10 9 9 7 7 7 6 6 4 4 5 5 5 6
10 9 13 12 7 12 8 10 13 9 2 3 2 2 11 12 13 14 14 15 12 9 8 4 3 3 5 6 8 11 11 10 10 8 6 6 6 6 6 5 5 5 6 6
6 10 11 12 12 8 8 13 17 11 3 3 3 6 13 16 16 15 14 13 11 9 8 7 3 1 3 4 6 8 10 9 9 9 7 6 6 5 5 4 5 6 6 7
9 10 13 15 14 10 10 11 12 9 5 2 5 9 13 13 13 13 14 14 13 10 8 6 3 1 3 3 3 4 7 9 9 8 7 7 6 6 6 5 5 6 5 5
9 11 16 17 15 11 7 17 14 10 11 11 11 10 13 13 12 13 16 16 15 14 12 10 7 5 3 3 3 4 4 5 6 6 6 5 3 4 5 4 4 5 5 4
9 12 13 12 15 8 8 16 15 13 15 12 12 12 16 17 14 16 17 17 15 16 15 15 13 11 9 8 7 7 6 6 5 4 5 4 1 0 2 3 4 4 4 5
11 11 6 9 11 4 6 8 13 10 14 18 17 19 21 20 8 15 18 17 16 14 14 13 12 12 12 11 10 9 10 9 9 8 7 6 4 3 3 3 4 5 5 5
10 8 6 6 7 4 6 9 11 8 6 16 19 21 23 24 12 15 21 16 13 12 11 10 10 10 11 11 10 11 11 11 10 9 7 7 6 5 4 4 4 4 5 5
12 8 6 6 6 4 5 13 15 7 1 15 19 20 22 22 15 14 19 14 11 9 8 8 9 10 9 10 10 11 10 9 9 8 7 6 5 5 5 5 5 4 4 4
13 11 10 9 5 3 5 12 10 5 7 15 16 18 18 16 13 16 18 12 7 6 7 7 8 7 8 8 9 10 8 7 6 6 6 6 5 5 4 5 5 4 4 4
10 9 8 8 6 4 8 8 7 5 9 12 15 16 17 18 18 17 16 11 6 5 5 6 5 6 6 7 7 7 6 4 4 4 4 5 5 6 6 5 5 5 4 4
7 7 6 5 4 5 6 5 4 6 10 12 14 16 17 18 17 17 15 12 6 3 4 3 2 3 4 6 6 5 4 4 3 3 3 4 5 5 6 6 6 5 4 3
6 7 6 5 5 8 7 7 8 10 11 13 14 16 17 17 17 17 15 12 7 2 3 0 2 1 3 3 3 4 4 5 2 2 3 5 6 6 6 6 6 5 6 5
4 5 5 5 6 8 7 11 12 12 13 13 14 15 15 16 16 15 14 11 7 3 3 1 2 2 2 3 4 5 4 6 4 4 4 5 5 4 5 6 6 6 7 6
1 3 4 4 8 8 11 12 13 13 14 14 15 15 15 15 14 14 12 10 7 4 3 3 3 3 1 4 4 5 2 5 5 5 5 3 3 2 2 4 5 10 9 11
Wind_Direction
247 257 266 291 329 309 298 296 293 306 355 331 304 297 289 279 258 237 236 246 244 221 198 185 153 133 138 155 170 159 148 157 152 147 151 151 165 163 164 178 193 202 212 214
280 277 333 328 311 300 301 300 305 326 351 330 310 298 291 286 279 261 249 246 249 237 198 146 132 135 148 139 121 120 136 143 143 145 153 163 169 184 190 190 203 206 214 220
267 268 231 280 286 289 291 300 311 319 328 329 323 297 288 284 280 272 258 251 251 243 172 140 136 129 122 116 109 85 90 109 106 119 124 143 149 187 200 199 207 211 208 216
272 241 224 256 261 260 270 255 256 286 314 302 321 299 290 289 291 281 270 249 231 211 162 136 134 129 128 116 115 126 112 111 115 127 147 163 176 195 207 202 203 211 211 212
283 267 251 264 271 258 271 241 239 247 248 261 248 254 279 285 282 280 272 273 244 165 149 133 133 131 126 122 131 123 116 120 135 156 159 184 199 210 219 206 196 203 210 211
271 264 255 265 275 256 246 243 247 244 246 257 245 228 265 261 265 298 305 262 182 147 142 130 126 121 117 119 121 118 123 118 133 158 177 197 200 202 207 186 187 196 196 207
306 285 249 225 255 245 229 244 264 250 230 256 297 237 238 215 234 287 302 32 120 133 133 128 125 121 125 135 140 135 128 135 161 194 210 196 175 198 212 184 178 180 190 199
312 311 339 297 274 278 247 246 253 272 269 264 255 261 266 191 189 201 128 95 108 116 120 129 133 135 143 149 151 148 148 157 168 209 251 217 147 157 153 116 136 167 168 175
321 311 320 320 309 293 281 263 268 276 279 274 235 223 232 13 11 35 105 118 134 133 133 142 145 150 155 157 160 164 159 160 166 195 221 321 88 130 129 153 149 128 139 159
316 309 308 312 305 286 285 291 285 261 280 269 257 165 20 9 5 1 16 63 105 136 159 163 159 161 163 162 168 174 166 167 176 189 183 137 94 124 120 62 127 142 136 124
319 307 306 305 300 308 314 308 295 277 251 264 303 44 54 30 5 355 356 359 19 14 2 295 169 167 165 166 170 172 171 171 179 189 173 152 187 181 168 186 154 148 149 151
337 317 305 302 323 11 4 345 319 299 293 317 335 68 53 40 2 347 343 338 348 350 330 281 223 174 169 172 174 176 178 183 179 183 175 174 175 159 180 201 175 176 173 168
336 312 312 314 333 21 6 330 316 312 283 298 312 70 30 19 2 347 334 327 329 326 319 294 245 169 172 179 179 179 183 187 176 175 182 174 174 179 190 207 180 185 186 177
310 294 300 301 308 317 309 305 308 313 324 329 21 27 19 10 354 339 331 329 328 322 315 312 313 201 175 192 198 186 184 176 168 170 177 181 185 180 180 203 190 200 206 189
331 310 313 309 303 290 282 307 311 322 346 23 30 38 13 356 339 340 350 350 349 344 333 315 292 233 167 189 205 181 172 163 165 164 170 177 193 179 185 211 209 204 220 211
338 321 319 312 310 300 16 16 15 26 29 50 54 33 352 347 354 14 9 7 8 7 8 7 7 31 63 100 93 87 106 128 146 161 164 157 176 173 181 212 237 217 206 223
340 330 325 316 317 309 50 18 12 38 40 42 40 12 355 356 16 29 18 15 17 17 18 23 28 35 45 61 75 76 70 65 67 77 90 96 86 8 192 226 246 247 220 218
347 340 333 323 338 44 57 18 1 8 37 25 13 5 359 352 16 45 23 17 18 19 19 21 26 35 44 50 56 62 59 53 46 44 44 42 25 9 339 290 268 255 240 225
2 352 341 345 348 61 30 0 345 328 8 17 1 356 356 352 6 24 10 8 16 19 17 17 26 37 41 44 47 57 59 53 45 35 31 30 18 2 340 313 298 283 271 251
2 1 360 357 359 20 344 330 322 287 326 5 352 349 351 357 5 350 345 353 12 17 14 19 27 33 41 43 49 56 56 51 41 30 29 23 12 352 334 325 312 303 294 285
356 359 9 2 17 69 340 337 350 42 332 328 334 338 342 345 334 324 331 342 5 25 20 28 36 29 35 47 58 57 51 49 41 27 22 15 8 353 3 351 336 328 320 311
7 2 5 357 12 23 6 1 14 323 311 320 326 329 330 326 325 328 331 333 349 43 41 35 43 38 33 39 61 70 46 34 53 40 26 19 20 15 13 4 354 352 350 333
30 19 351 349 359 6 353 357 342 316 316 320 322 322 323 322 325 328 328 330 340 58 74 50 66 79 64 44 42 58 39 356 22 42 39 42 44 49 31 18 11 7 4 354
14 9 346 341 358 357 356 357 341 330 322 319 317 317 319 318 320 323 325 326 334 27 104 154 273 134 105 84 68 62 9 328 341 64 65 70 52 49 50 33 21 21 16 7
344 346 336 327 355 347 346 345 335 328 324 321 318 316 314 314 316 318 320 325 327 328 127 146 300 314 113 95 82 73 14 329 344 47 68 84 82 71 71 65 41 31 44 34
6 356 340 330 344 333 326 331 328 327 326 323 320 317 316 313 312 316 319 320 319 316 153 168 243 280 66 85 87 95 38 335 15 45 37 48 88 92 101 120 100 58 57 52
Height
1478 1479 1482 1480 1480 1481 1479 1479 1478 1475 1474 1475 1474 1469 1462 1459 1460 1460 1462 1463 1464 1465 1467 1470 1474 1478 1482 1487 1490 1492 1494 1496 1498 1499 1501 1504 1506 1507 1509 1510 1511 1513 1515 1518
1481 1482 1480 1478 1479 1480 1480 1482 1482 1478 1478 1477 1476 1471 1463 1459 1458 1458 1458 1458 1459 1460 1462 1465 1469 1474 1480 1484 1487 1490 1492 1494 1495 1496 1498 1500 1503 1505 1506 1507 1509 1510 1512 1515
1482 1480 1478 1481 1481 1483 1484 1489 1489 1490 1483 1478 1481 1477 1466 1457 1455 1454 1453 1453 1455 1457 1459 1462 1466 1472 1477 1482 1485 1487 1489 1491 1492 1493 1495 1497 1499 1501 1503 1504 1506 1507 1509 1511
1475 1472 1476 1479 1480 1481 1486 1482 1486 1488 1492 1494 1492 1497 1475 1461 1456 1451 1450 1450 1451 1454 1458 1460 1465 1471 1476 1480 1483 1485 1487 1488 1489 1491 1492 1494 1496 1498 1500 1501 1503 1504 1506 1508
1474 1471 1473 1477 1475 1475 1478 1478 1482 1486 1490 1494 1489 1496 1478 1461 1459 1452 1447 1448 1449 1452 1456 1460 1465 1470 1475 1478 1482 1484 1485 1486 1487 1489 1490 1492 1494 1496 1498 1499 1500 1501 1503 1504
1469 1466 1467 1469 1468 1471 1473 1478 1481 1483 1488 1496 1481 1486 1480 1463 1457 1452 1448 1446 1448 1451 1455 1460 1465 1470 1474 1477 1480 1482 1484 1485 1486 1488 1489 1490 1493 1494 1496 1496 1498 1499 1499 1500
1471 1462 1459 1463 1469 1469 1472 1482 1495 1496 1499 1490 1472 1474 1469 1453 1449 1449 1447 1446 1447 1450 1454 1459 1465 1469 1473 1476 1479 1481 1482 1484 1485 1487 1488 1490 1491 1492 1494 1495 1495 1496 1496 1497
1480 1475 1462 1462 1468 1470 1469 1475 1493 1501 1496 1487 1478 1477 1459 1447 1446 1446 1446 1447 1449 1452 1455 1459 1464 1469 1472 1475 1478 1480 1481 1483 1484 1486 1488 1490 1490 1490 1492 1492 1493 1493 1494 1494
1488 1483 1468 1466 1465 1466 1468 1468 1465 1475 1478 1481 1474 1465 1454 1449 1449 1448 1447 1448 1451 1453 1456 1459 1464 1468 1471 1474 1476 1479 1480 1482 1483 1485 1487 1488 1489 1489 1490 1490 1491 1491 1491 1492
1487 1490 1478 1470 1467 1465 1464 1465 1468 1479 1492 1489 1470 1468 1481 1470 1467 1459 1454 1451 1452 1454 1457 1459 1462 1466 1469 1472 1475 1477 1479 1481 1482 1484 1485 1486 1487 1487 1488 1488 1489 1489 1490 1490
1489 1492 1485 1478 1474 1473 1472 1474 1474 1475 1476 1485 1489 1486 1478 1480 1479 1474 1467 1462 1459 1459 1459 1459 1460 1463 1466 1470 1473 1475 1477 1479 1481 1482 1484 1484 1485 1486 1486 1487 1487 1487 1488 1488
1492 1494 1493 1484 1477 1478 1478 1485 1486 1492 1487 1478 1486 1493 1481 1481 1481 1477 1472 1466 1461 1460 1459 1459 1460 1462 1464 1467 1469 1472 1474 1477 1478 1480 1482 1482 1484 1484 1485 1485 1486 1486 1487 1487
1498 1500 1504 1495 1488 1488 1494 1493 1488 1482 1484 1488 1493 1493 1483 1481 1479 1476 1472 1468 1463 1460 1459 1459 1459 1460 1462 1465 1467 1469 1471 1473 1475 1477 1480 1481 1482 1482 1483 1484 1485 1485 1486 1486
1499 1500 1505 1511 1503 1498 1498 1494 1486 1482 1487 1488 1490 1491 1487 1483 1479 1475 1471 1468 1464 1461 1459 1458 1458 1459 1460 1462 1464 1466 1469 1471 1473 1474 1477 1479 1480 1481 1481 1482 1483 1483 1485 1485
1498 1500 1497 1494 1490 1491 1492 1492 1486 1483 1482 1489 1492 1493 1492 1487 1484 1479 1474 1469 1464 1460 1458 1457 1457 1457 1458 1460 1462 1463 1466 1468 1470 1473 1475 1476 1478 1479 1479 1480 1481 1481 1482 1483
1499 1500 1497 1494 1487 1486 1494 1499 1492 1489 1490 1491 1493 1498 1493 1489 1484 1481 1477 1472 1467 1463 1460 1458 1457 1457 1457 1459 1460 1462 1464 1467 1470 1472 1473 1475 1476 1477 1477 1478 1479 1479 1480 1480
1500 1501 1502 1499 1489 1485 1507 1519 1513 1506 1504 1502 1505 1504 1496 1490 1487 1485 1481 1477 1472 1469 1465 1462 1460 1459 1459 1460 1461 1463 1465 1467 1469 1471 1472 1473 1474 1475 1475 1475 1475 1476 1476 1477
1502 1502 1504 1503 1498 1509 1529 1525 1522 1516 1511 1511 1509 1505 1500 1494 1489 1487 1484 1481 1477 1474 1470 1467 1465 1464 1463 1463 1464 1465 1466 1467 1469 1470 1470 1471 1471 1471 1471 1472 1472 1472 1473 1474
1502 1504 1507 1510 1511 1518 1526 1525 1525 1523 1516 1517 1514 1508 1502 1495 1486 1485 1487 1485 1482 1479 1476 1473 1471 1469 1468 1467 1468 1467 1468 1468 1468 1469 1469 1468 1468 1468 1468 1468 1468 1469 1470 1470
1505 1504 1508 1511 1516 1527 1532 1525 1521 1519 1518 1519 1517 1513 1508 1502 1497 1494 1491 1488 1485 1483 1480 1478 1476 1474 1472 1471 1471 1470 1470 1469 1469 1469 1468 1467 1466 1465 1465 1464 1464 1465 1466 1467
1513 1511 1513 1516 1519 1529 1529 1525 1520 1524 1528 1522 1520 1516 1512 1509 1508 1501 1494 1490 1487 1485 1483 1481 1479 1478 1477 1475 1474 1473 1472 1471 1470 1469 1468 1467 1465 1464 1463 1462 1461 1461 1462 1463
1521 1522 1523 1523 1526 1534 1527 1525 1527 1530 1525 1522 1519 1516 1513 1509 1505 1500 1495 1491 1488 1486 1485 1483 1482 1480 1479 1478 1476 1475 1474 1473 1472 1470 1469 1467 1465 1463 1462 1460 1459 1459 1459 1460
1523 1527 1527 1528 1531 1528 1527 1527 1527 1525 1523 1520 1518 1514 1511 1507 1503 1499 1495 1491 1488 1486 1485 1484 1483 1483 1481 1480 1479 1477 1476 1474 1473 1471 1470 1468 1466 1464 1462 1460 1459 1458 1458 1459
1524 1526 1526 1526 1526 1527 1526 1526 1525 1523 1521 1518 1515 1512 1509 1506 1502 1498 1494 1491 1488 1486 1485 1485 1484 1484 1483 1482 1480 1478 1476 1475 1474 1473 1471 1469 1467 1465 1463 1462 1460 1460 1459 1459
1528 1528 1528 1527 1527 1526 1526 1525 1523 1521 1518 1515 1513 1510 1507 1504 1500 1497 1494 1490 1488 1486 1485 1484 1484 1484 1484 1482 1480 1478 1476 1475 1475 1473 1472 1470 1469 1467 1466 1464 1463 1462 1461 1461
1525 1528 1529 1529 1528 1528 1526 1524 1521 1519 1516 1513 1510 1506 1504 1502 1499 1495 1492 1490 1487 1485 1484 1484 1484 1484 1484 1482 1481 1479 1477 1476 1475 1474 1473 1472 1471 1469 1468 1467 1466 1465 1464 1463